SCP
1 0 0 0 0 0 0 0 0 0 0 0 0 0 0 0 0 0 0 0 0 0 0 0 0 0 0 0 0 0 0 0 0 0 0 0 0 0 0 0 0 0 0
1 0 0 0 0 0 0 0 0 0 0 1 1 0 0 0 0 0 0 0 0 0 0 0 0 0 0 0 0 0 0 0 0 0 0 0 0 0 0 0 0 0 0
0 0 0 0 0 0 0 0 0 0 0 1 1 0 0 0 0 0 0 0 0 0 0 0 0 0 0 0 0 0 0 0 0 0 0 0 0 0 0 1 1 1 1
0 0 0 1 1 0 0 0 0 0 0 1 1 1 0 0 0 0 0 0 0 0 0 0 0 0 0 0 0 0 0 0 0 1 1 0 0 0 1 1 1 1 1
1 1 1 1 1 1 0 0 0 0 0 1 1 1 1 0 0 0 0 0 0 0 0 0 0 0 0 0 0 0 1 1 1 1 1 1 1 0 0 1 1 1 1
1 1 1 1 1 1 0 0 0 0 0 1 1 1 1 1 0 0 0 0 0 1 1 0 0 0 0 0 0 0 1 1 1 1 1 1 1 0 0 0 1 1 1
1 1 1 1 1 1 1 0 0 0 0 0 1 1 1 1 1 1 1 1 1 1 1 0 0 0 0 0 0 0 0 0 1 1 1 1 0 0 0 0 1 1 1
1 1 1 1 1 1 1 1 0 0 0 0 1 1 1 1 1 1 1 1 1 1 1 0 0 0 0 0 0 0 0 0 0 0 0 0 0 0 0 0 1 1 1
1 1 1 1 1 1 1 1 0 0 0 0 0 1 1 1 1 1 1 1 1 1 0 0 0 0 0 0 0 0 0 0 0 0 0 0 0 0 0 0 0 0 0
0 0 1 1 1 1 1 1 0 0 0 0 1 1 1 1 1 1 1 1 1 0 0 0 0 0 0 0 0 0 0 0 0 0 0 0 0 0 0 0 0 0 0
0 0 0 1 1 1 1 1 1 1 1 1 1 1 1 1 1 1 1 0 0 0 0 0 0 0 0 0 0 0 1 1 1 1 1 0 0 0 0 0 0 0 0
0 0 1 1 1 1 1 1 1 1 1 1 1 1 1 1 1 1 0 0 0 0 0 0 0 0 0 0 0 1 0 1 1 1 1 1 1 1 0 0 0 0 0
1 1 1 1 1 1 1 1 1 1 1 1 1 1 1 1 1 1 0 0 0 0 0 0 0 0 0 0 0 0 0 0 0 0 0 0 1 1 1 0 0 0 0
1 1 1 1 1 1 1 1 1 1 1 1 1 1 0 0 0 0 0 0 0 0 0 0 0 0 0 0 0 0 0 0 0 0 0 0 0 0 0 0 0 0 0
1 1 1 1 1 1 1 1 1 1 1 1 1 0 0 0 0 0 0 0 0 0 0 0 0 0 0 0 0 0 0 0 0 0 0 0 0 0 0 0 0 0 0
1 1 1 2 1 1 1 1 1 1 1 0 0 0 0 0 0 0 0 1 1 1 0 0 0 0 0 0 0 0 0 0 0 0 0 0 0 0 0 0 0 0 0
1 1 1 2 1 1 1 1 1 1 0 0 0 0 0 0 0 0 0 1 1 1 1 1 1 1 0 0 0 0 0 0 0 0 0 0 0 0 0 0 0 0 0
1 1 1 1 1 1 1 1 1 1 0 0 0 0 0 0 0 1 1 1 1 1 1 1 1 1 0 0 0 0 0 0 0 0 0 0 0 0 0 0 0 0 0
1 1 1 1 1 1 1 1 1 1 1 0 0 0 0 1 1 1 1 1 1 2 2 1 1 1 1 0 0 0 0 0 0 0 0 0 0 0 0 0 0 0 0
1 1 1 1 1 1 1 1 1 1 1 1 1 1 1 1 1 1 1 2 2 2 2 1 1 1 1 0 0 0 0 0 0 0 0 0 0 0 0 0 0 0 0
1 1 1 1 1 1 1 1 1 1 1 1 1 1 1 1 1 1 2 2 2 2 2 1 1 1 0 0 0 0 0 0 0 0 0 0 0 0 0 0 0 0 0
1 1 1 1 1 1 1 1 1 1 1 1 1 1 1 1 1 1 2 2 2 2 2 1 1 1 0 0 0 0 0 0 0 0 0 0 0 0 0 0 0 0 0
1 1 1 1 1 1 1 1 1 1 1 1 1 1 1 1 1 2 2 2 3 2 2 1 1 1 1 0 0 0 0 0 0 0 0 0 0 0 0 0 0 0 0
0 1 1 1 1 1 1 1 0 1 1 1 1 1 1 1 2 2 3 3 3 3 2 2 1 1 1 1 1 0 0 0 0 0 0 0 0 0 0 0 0 0 0
0 0 1 1 1 1 1 0 0 0 1 1 1 1 1 2 2 3 3 3 3 2 2 1 1 1 1 1 1 1 0 0 0 0 0 0 0 0 0 0 0 0 0
0 0 1 1 1 1 1 0 0 0 1 1 1 1 1 2 3 3 2 2 2 1 1 1 1 1 1 1 0 0 0 0 0 0 0 0 0 0 0 0 0 0 0
Wind_Speed
6 6 6 5 5 5 5 5 5 5 4 3 2 2 2 1 2 1 2 1 2 2 2 1 2 2 2 2 3 3 4 3 3 3 3 4 5 5 4 4 4 5 6
8 7 7 6 6 5 6 5 5 5 4 2 2 1 1 1 1 1 1 1 1 1 2 2 2 2 2 3 3 2 2 2 1 0 1 2 3 3 4 3 3 4 4
9 8 8 7 7 6 6 5 5 5 5 4 2 2 2 2 2 2 1 1 1 1 1 2 2 2 2 2 3 3 2 1 1 1 2 1 1 2 3 4 3 4 4
9 8 8 8 7 7 6 6 6 6 6 6 5 4 3 2 2 2 2 2 2 2 2 2 2 2 2 2 3 3 2 1 1 1 1 2 2 1 1 2 3 3 3
9 9 8 8 7 7 6 6 6 6 6 6 6 5 3 2 2 2 3 3 2 2 2 2 2 3 2 2 2 2 2 2 1 1 1 0 0 2 1 1 1 2 2
9 8 8 7 6 6 5 5 6 6 6 6 6 6 5 4 4 4 3 3 2 2 3 3 2 3 2 3 3 3 3 2 2 2 1 1 1 1 1 1 1 1 2
8 8 8 8 7 6 6 6 6 6 6 7 6 6 6 5 5 4 4 4 3 3 3 3 3 2 2 2 2 3 2 3 2 2 2 2 1 1 1 1 1 1 1
7 8 8 7 7 6 6 6 7 7 6 6 6 6 5 4 4 4 4 4 3 2 3 4 3 3 3 3 2 2 2 2 2 2 2 2 1 1 2 1 1 1 1
6 7 7 7 7 7 6 6 6 6 6 6 6 5 5 5 4 5 4 3 3 2 3 4 3 3 3 3 3 2 2 2 2 2 2 2 1 2 2 2 2 2 1
6 5 5 6 6 6 6 6 6 6 5 5 4 3 4 4 4 4 4 4 3 3 4 4 4 4 4 4 3 3 2 2 2 2 2 2 2 1 2 2 2 2 2
4 5 5 5 5 5 5 5 5 5 5 5 5 5 4 4 4 4 4 4 4 4 5 5 4 4 4 5 4 4 4 3 3 3 3 3 2 2 2 2 2 2 1
3 3 4 4 4 5 5 5 4 4 4 3 4 4 4 3 3 3 3 4 4 4 5 5 5 5 5 5 4 4 4 4 4 3 3 3 2 3 2 2 3 2 2
3 3 3 4 4 4 4 4 4 4 3 3 3 3 4 3 3 3 3 3 4 4 5 5 5 5 5 5 5 5 5 4 4 4 4 4 4 4 3 3 3 2 2
3 3 3 3 3 4 4 4 4 4 3 3 3 3 3 3 3 3 3 3 4 4 5 5 5 5 5 5 5 5 5 5 4 4 4 4 4 4 4 4 3 3 3
3 3 3 3 3 4 4 4 4 4 4 4 4 4 3 3 3 3 3 3 3 4 4 5 5 5 5 4 5 5 5 5 4 4 4 3 1 2 1 2 3 4 3
3 3 3 3 4 4 4 5 5 5 5 5 4 3 3 3 3 3 3 3 3 4 4 4 5 5 4 3 3 4 5 5 4 4 4 4 4 4 3 3 3 3 4
4 4 4 4 4 4 4 5 5 5 5 5 5 4 4 4 3 3 3 3 3 3 4 4 4 5 4 5 5 5 5 5 4 4 4 3 3 4 5 6 6 5 5
4 4 4 4 3 4 4 5 5 5 6 6 5 5 4 4 4 4 4 4 4 3 4 4 4 3 3 5 6 6 6 5 4 4 4 4 5 4 4 4 5 5 5
3 3 3 3 3 3 4 5 5 6 6 6 6 5 5 5 5 4 4 4 4 4 4 4 4 4 4 5 6 6 5 4 5 5 4 4 4 4 4 5 5 5 4
3 3 3 3 3 3 4 5 5 6 7 6 6 6 6 6 6 5 5 4 4 4 4 4 4 5 5 5 7 8 5 5 5 4 4 4 4 5 7 7 6 6 5
3 3 3 3 3 3 4 5 5 6 6 5 6 6 6 6 6 5 5 4 4 4 4 4 4 5 4 5 6 7 5 5 5 4 4 4 7 7 8 8 6 4 4
3 3 3 3 3 3 4 5 5 5 4 4 5 5 6 5 5 5 5 5 4 4 4 4 4 4 4 4 5 7 7 5 5 5 4 3 7 8 8 7 5 4 4
4 3 3 3 3 3 4 5 4 4 4 5 5 5 5 5 5 5 5 5 5 4 4 4 4 4 3 3 4 6 8 7 5 3 2 2 6 7 7 8 7 7 5
4 4 3 3 3 3 4 4 4 4 4 5 5 5 5 5 5 5 5 5 5 5 4 4 4 4 3 3 4 4 5 6 5 4 3 4 5 5 5 6 7 6 5
4 4 4 4 4 4 4 4 4 4 5 5 5 5 4 4 5 5 4 5 5 5 5 5 4 4 5 4 3 3 4 4 4 4 4 4 4 5 5 5 5 5 5
5 4 5 5 5 5 5 5 5 5 6 5 5 4 4 4 4 4 4 4 5 4 5 5 5 4 4 2 4 5 4 3 4 4 5 5 6 6 6 6 6 6 6
Wind_Direction
186 182 187 184 183 182 177 178 176 169 165 161 165 165 156 151 135 123 111 122 133 136 130 137 136 139 126 121 119 112 112 111 113 115 104 93 73 66 62 48 50 58 52
184 182 187 184 185 188 187 182 185 177 172 165 162 168 154 160 120 135 147 149 147 161 158 171 160 157 143 150 138 134 140 130 159 217 168 146 131 84 60 57 49 51 54
196 187 188 190 189 193 189 192 191 181 176 171 162 160 155 169 164 167 158 152 160 178 192 177 171 170 177 163 171 174 180 166 173 337 331 328 64 108 100 64 56 50 47
203 192 188 191 195 196 193 199 195 190 179 181 187 197 198 193 178 180 160 171 177 185 193 183 192 186 190 179 192 193 216 218 197 161 323 341 23 284 131 115 73 54 46
202 196 193 193 196 194 196 202 197 192 186 189 192 208 212 205 187 188 182 188 170 179 180 193 204 202 199 199 204 208 236 245 263 247 215 96 115 280 285 118 111 97 62
198 197 193 191 194 190 193 200 199 194 194 197 200 208 210 208 202 203 198 193 177 183 185 200 215 217 209 207 210 218 230 250 262 265 253 241 250 225 249 221 173 98 75
189 190 188 186 189 188 190 193 197 202 203 208 213 217 214 216 214 213 207 205 193 192 192 197 212 219 218 214 216 224 231 233 242 247 246 249 264 252 246 212 172 117 107
184 186 187 184 184 185 191 197 200 205 208 213 219 222 215 219 221 223 221 217 207 203 197 201 207 211 212 210 211 235 231 237 236 236 233 231 217 213 219 216 198 181 158
182 186 185 185 187 188 190 197 201 203 205 208 216 222 222 225 223 225 224 221 216 204 205 208 203 204 205 211 205 222 213 221 232 232 225 236 205 210 219 224 239 252 220
178 181 186 186 190 192 192 194 202 205 204 203 210 212 219 224 228 228 223 221 217 208 207 212 211 205 200 200 205 217 214 213 204 230 232 230 224 202 205 224 243 268 272
170 174 177 180 184 187 187 192 201 206 204 203 203 205 208 214 219 228 229 223 220 217 214 214 219 215 207 204 199 206 196 208 202 200 208 213 213 205 202 211 226 240 234
165 166 169 170 175 180 182 188 196 202 203 205 202 204 205 205 216 225 233 229 224 223 221 220 221 216 215 212 208 206 201 202 206 202 205 207 192 211 212 215 219 211 219
151 157 165 171 177 179 184 187 191 196 195 193 196 199 201 205 213 223 229 231 231 226 220 219 223 219 214 208 210 212 209 210 214 211 209 206 200 205 199 210 211 199 194
169 166 173 179 182 187 189 191 190 192 192 194 198 204 206 212 221 224 226 230 229 232 228 219 219 221 217 211 210 213 212 212 211 215 220 215 211 214 203 203 202 194 192
205 195 191 187 185 193 197 195 195 195 195 198 206 211 215 211 222 229 231 232 232 235 237 231 222 220 223 221 221 217 216 214 207 210 219 224 249 336 261 236 212 201 203
230 220 207 198 197 199 202 202 203 202 203 206 209 211 220 212 218 229 234 231 230 231 225 232 231 222 219 180 217 241 217 220 214 210 211 198 196 191 209 240 260 261 234
247 233 225 218 213 212 211 211 209 205 207 210 209 209 214 211 218 226 224 221 221 224 225 226 228 227 208 174 193 220 231 222 221 220 212 203 197 208 212 199 209 229 256
253 244 240 234 228 220 218 217 209 207 210 214 214 211 216 212 214 223 223 223 221 212 220 226 224 226 198 177 191 200 225 221 220 225 222 210 203 204 222 218 218 216 209
283 267 257 247 237 225 219 217 212 211 215 219 223 218 217 216 216 218 223 225 223 219 223 221 217 218 201 181 189 200 220 222 221 221 225 221 211 174 204 222 222 223 215
290 282 262 246 239 231 219 219 218 217 222 224 226 221 218 218 219 221 222 224 224 224 229 229 225 228 224 178 191 208 220 221 219 215 216 211 222 185 201 221 221 224 219
301 282 260 249 246 238 225 225 228 231 233 233 230 225 220 220 223 223 219 219 221 223 228 231 231 233 231 185 188 210 231 226 224 218 217 202 192 202 210 231 234 231 238
306 281 261 257 255 240 230 233 241 244 236 230 228 228 226 224 219 215 215 219 218 220 228 233 234 235 223 212 195 207 227 249 234 230 226 202 181 201 211 221 221 210 223
309 293 272 270 268 254 241 243 245 239 231 224 223 225 226 222 218 215 211 212 215 221 225 225 229 229 225 204 197 209 220 232 244 244 245 212 188 201 210 211 209 206 215
299 291 273 265 264 261 251 251 250 238 229 229 230 227 223 221 218 216 215 214 213 218 222 226 228 228 220 217 206 209 212 211 227 240 212 196 195 211 221 205 206 216 219
290 280 267 267 266 260 252 249 248 246 241 237 233 229 223 223 226 223 223 226 226 225 226 228 229 225 227 220 215 223 223 219 223 227 219 214 205 208 212 215 214 214 213
283 275 270 271 271 265 258 254 247 243 240 238 235 232 224 221 224 224 225 222 234 229 235 250 249 243 242 204 195 218 239 238 218 221 222 223 221 221 220 218 217 218 220